{"data":{"norad_id":66252,"epoch":"2026-05-24T16:09:20.381184Z","epoch_age_seconds":96446,"freshness":"FRESH","line1":"1 66252U 25245U   26144.67315256 -.00662420  00000+0 -24878-1 0  9992","line2":"2 66252  53.1599 290.6884 0008093  79.3826 280.8086 15.29097399 32840","mean_motion":15.29097399,"eccentricity":0.0008093,"inclination_deg":53.1599,"raan_deg":290.6884,"arg_perigee_deg":79.3826,"mean_anomaly_deg":280.8086,"bstar":-0.024878,"rev_number":3284,"period_min":94.173203155125,"perigee_km":472.96013158228,"apogee_km":484.05829914647,"semimajor_km":6856.6462153644,"source":"CELESTRAK","updated_at":"2026-05-25T13:38:21.137340Z"}}